Probability
3 0 0 0 0 0 0 0 0 0 0 0 0 0 0 0 0 0 0 0 0 0 3 6 6 3 0 0 0 0 0 0 3 6 6 3 0 0 0 0 0 0 0
0 3 0 0 0 0 0 0 0 0 0 0 0 0 0 0 0 0 0 0 0 0 0 6 6 6 6 0 0 3 0 0 3 3 3 0 0 0 0 0 0 0 0
0 0 0 0 0 0 0 0 0 0 0 0 0 0 0 0 0 0 0 0 0 0 0 0 6 6 3 0 3 3 3 0 3 3 3 0 0 0 0 0 0 0 0
0 0 0 0 0 0 0 0 0 0 0 0 0 0 0 0 0 0 0 0 0 0 0 0 3 0 0 0 0 3 6 6 3 3 3 0 0 0 0 0 0 0 0
0 0 0 0 0 0 0 0 0 0 0 0 0 0 0 0 0 0 0 0 0 0 0 0 0 0 0 0 0 3 3 6 3 3 3 3 0 0 0 0 0 0 0
0 0 0 0 0 0 0 0 0 0 0 0 0 0 0 0 0 0 0 0 0 0 0 0 0 0 0 0 0 0 0 0 3 0 3 3 0 0 0 0 0 0 0
0 0 0 0 0 0 0 0 0 0 0 0 0 0 0 0 0 0 0 0 0 0 0 0 0 0 0 0 0 0 0 0 0 0 0 0 0 0 0 0 0 0 0
0 0 0 0 0 0 0 0 0 0 0 0 0 0 0 0 0 0 0 0 0 0 0 0 0 0 0 0 0 0 0 0 0 0 0 0 0 0 0 0 0 0 0
0 0 0 0 0 0 0 0 0 0 0 0 0 0 0 0 0 0 0 0 0 0 0 0 0 0 0 0 0 0 0 0 0 0 0 0 0 0 0 0 0 0 0
0 0 0 0 0 0 0 0 0 0 0 0 0 0 0 0 0 0 0 0 0 0 0 0 0 0 0 0 0 0 0 0 0 0 0 0 0 0 0 0 0 0 0
0 0 0 0 0 0 0 0 0 0 0 0 0 0 0 0 0 0 0 0 0 0 0 0 0 0 0 0 0 0 0 0 0 0 0 0 0 0 0 0 0 0 0
0 0 0 0 0 0 0 0 0 0 0 0 0 0 0 0 0 0 0 0 0 0 0 0 0 0 0 0 0 0 0 0 0 0 0 0 0 0 0 0 0 0 0
0 0 0 0 0 0 0 0 0 0 0 0 0 0 0 0 0 0 0 0 0 0 0 0 0 0 0 0 0 0 0 0 0 0 0 0 0 0 0 0 0 0 0
0 0 0 0 0 0 0 0 0 0 0 0 0 0 0 0 0 0 0 0 0 0 0 0 0 0 0 0 0 0 0 0 0 0 0 0 0 0 0 0 0 0 0
0 0 0 0 0 0 0 0 0 0 0 0 0 0 0 0 0 0 0 0 0 0 0 0 0 0 0 0 0 0 0 0 0 0 0 0 0 0 0 0 0 0 0
0 0 0 0 0 0 0 0 0 0 0 0 0 0 0 0 0 0 0 0 0 0 0 0 0 0 0 0 0 0 0 0 0 0 0 0 0 0 0 0 0 0 0
0 0 0 0 0 0 0 0 0 0 0 0 0 0 0 0 0 0 0 0 0 0 0 0 0 0 0 0 0 0 0 0 0 0 0 0 0 0 0 0 0 0 0
0 0 0 0 0 0 0 0 0 0 0 0 0 0 0 0 0 0 0 0 0 0 0 0 0 0 0 0 0 0 0 0 0 0 0 0 0 0 0 0 0 0 0
0 0 0 0 0 0 0 0 0 0 0 0 0 0 0 0 0 0 0 0 0 0 0 0 0 0 0 0 0 0 0 0 0 0 0 0 0 0 0 0 0 0 0
0 0 0 0 0 0 0 0 0 0 0 0 0 0 0 0 0 0 0 0 0 0 0 0 0 0 0 0 0 0 0 0 0 0 0 0 0 0 0 0 0 0 0
0 0 0 0 0 0 0 0 0 0 0 0 0 0 0 0 0 0 0 0 0 0 0 0 0 0 0 0 0 0 0 0 0 0 0 0 0 0 0 0 0 0 0
0 0 0 0 0 0 0 0 0 0 0 0 0 0 0 0 0 0 0 0 0 0 0 0 0 0 0 0 0 0 0 0 0 0 0 0 0 0 0 0 0 0 0
0 0 0 0 0 0 0 0 0 0 0 0 0 0 0 0 0 0 0 0 0 0 0 0 0 0 0 0 0 0 0 0 0 0 0 0 0 0 0 0 0 0 0
0 0 0 0 0 0 0 0 0 0 0 0 0 0 0 0 0 0 0 0 0 0 0 0 0 0 0 0 0 0 0 0 0 0 0 0 0 0 0 0 0 0 0
0 0 0 0 0 0 0 0 0 0 0 0 0 0 0 0 0 0 0 0 0 0 0 0 0 0 0 0 0 0 0 0 0 0 0 0 0 0 0 0 0 0 0
0 0 0 0 0 0 0 0 0 0 0 0 0 0 0 0 0 0 0 0 0 0 0 0 0 0 0 0 0 0 0 0 0 0 0 0 0 0 0 0 0 0 0
Height
5811 5814 5816 5819 5820 5822 5823 5825 5826 5827 5827 5828 5829 5830 5831 5832 5833 5833 5834 5835 5836 5836 5836 5836 5837 5837 5837 5837 5837 5837 5837 5837 5836 5836 5835 5834 5833 5833 5832 5831 5830 5829 5828
5806 5809 5812 5814 5816 5817 5819 5820 5821 5821 5823 5823 5824 5825 5825 5826 5827 5828 5829 5830 5830 5831 5831 5831 5832 5832 5832 5832 5832 5832 5832 5832 5831 5831 5830 5829 5828 5827 5827 5826 5824 5823 5822
5801 5804 5806 5809 5810 5812 5814 5815 5816 5817 5817 5818 5819 5819 5820 5821 5821 5823 5823 5824 5825 5825 5825 5826 5826 5826 5827 5827 5827 5826 5826 5826 5826 5825 5824 5824 5823 5822 5821 5820 5819 5817 5816
5795 5799 5801 5803 5805 5807 5808 5809 5810 5811 5812 5813 5813 5814 5814 5815 5816 5816 5817 5818 5819 5819 5819 5820 5820 5820 5821 5821 5821 5820 5820 5820 5819 5819 5818 5817 5817 5815 5814 5813 5812 5811 5810
5790 5793 5796 5798 5799 5801 5803 5804 5805 5806 5807 5807 5807 5808 5809 5809 5810 5810 5811 5812 5812 5813 5814 5814 5814 5814 5814 5814 5814 5814 5814 5813 5813 5812 5811 5811 5810 5809 5808 5807 5805 5804 5803
5783 5786 5789 5792 5794 5795 5797 5798 5799 5800 5800 5801 5801 5802 5802 5803 5803 5804 5804 5805 5806 5807 5807 5808 5808 5808 5808 5808 5807 5807 5806 5806 5805 5805 5804 5803 5802 5801 5800 5799 5798 5797 5796
5777 5780 5783 5786 5788 5789 5791 5792 5793 5793 5793 5794 5795 5795 5796 5796 5797 5797 5797 5798 5799 5800 5800 5801 5801 5801 5801 5801 5800 5800 5799 5798 5797 5797 5796 5795 5794 5793 5792 5791 5790 5789 5788
5771 5773 5776 5778 5781 5783 5784 5786 5786 5787 5787 5787 5788 5788 5789 5790 5790 5790 5791 5791 5792 5792 5792 5793 5793 5793 5793 5793 5792 5792 5791 5790 5789 5788 5788 5787 5786 5785 5783 5783 5782 5781 5780
5764 5767 5770 5772 5774 5776 5777 5778 5779 5780 5780 5780 5780 5781 5782 5783 5783 5784 5783 5784 5784 5784 5784 5784 5785 5785 5784 5784 5784 5783 5782 5781 5780 5780 5779 5778 5777 5775 5774 5773 5772 5771 5770
5758 5760 5762 5764 5766 5768 5769 5771 5772 5772 5772 5772 5772 5773 5774 5774 5775 5776 5776 5775 5776 5776 5776 5776 5776 5776 5775 5775 5774 5774 5773 5772 5771 5770 5769 5768 5767 5766 5764 5763 5762 5761 5760
5751 5753 5754 5757 5758 5760 5761 5763 5763 5764 5764 5764 5765 5765 5765 5766 5766 5766 5767 5767 5767 5767 5767 5767 5767 5766 5766 5765 5764 5764 5763 5761 5761 5759 5758 5757 5756 5755 5753 5752 5751 5749 5748
5743 5745 5747 5748 5750 5752 5753 5754 5755 5755 5755 5755 5756 5756 5756 5757 5757 5757 5757 5757 5757 5757 5757 5757 5757 5756 5756 5755 5754 5754 5752 5751 5750 5748 5747 5746 5745 5743 5742 5740 5739 5737 5736
5735 5737 5738 5740 5741 5743 5744 5745 5745 5746 5746 5746 5746 5747 5747 5747 5747 5747 5747 5747 5747 5747 5747 5746 5746 5745 5745 5744 5743 5742 5741 5739 5738 5737 5735 5734 5732 5731 5729 5728 5726 5724 5723
5726 5728 5729 5731 5732 5733 5734 5735 5735 5736 5736 5736 5736 5736 5737 5737 5736 5736 5736 5736 5736 5736 5735 5735 5734 5733 5732 5731 5730 5730 5728 5727 5725 5723 5722 5720 5719 5717 5716 5714 5712 5711 5709
5717 5718 5720 5721 5722 5723 5724 5725 5725 5725 5725 5725 5725 5725 5726 5725 5725 5724 5724 5724 5724 5724 5724 5723 5722 5721 5719 5718 5717 5715 5714 5713 5711 5709 5708 5706 5704 5703 5701 5699 5698 5696 5694
5707 5709 5710 5711 5712 5713 5713 5714 5714 5714 5714 5714 5714 5714 5714 5714 5713 5712 5712 5711 5710 5710 5711 5711 5709 5707 5706 5704 5702 5701 5699 5698 5696 5694 5692 5691 5689 5687 5686 5684 5682 5680 5678
5698 5699 5700 5700 5701 5702 5702 5702 5702 5702 5702 5702 5702 5702 5702 5702 5701 5700 5699 5698 5697 5696 5697 5697 5695 5693 5691 5690 5688 5686 5684 5682 5680 5678 5676 5674 5673 5671 5669 5667 5665 5663 5661
5688 5688 5689 5689 5690 5690 5690 5690 5690 5690 5690 5690 5690 5690 5689 5689 5688 5687 5686 5685 5684 5682 5681 5682 5681 5679 5676 5674 5672 5671 5669 5667 5664 5662 5660 5658 5655 5653 5651 5649 5647 5645 5644
5677 5678 5678 5678 5678 5678 5678 5677 5677 5677 5677 5676 5677 5676 5676 5675 5675 5674 5672 5671 5669 5667 5666 5665 5665 5664 5661 5659 5657 5655 5653 5651 5649 5646 5644 5641 5639 5636 5633 5631 5629 5628 5626
5667 5667 5666 5666 5666 5665 5665 5664 5664 5664 5664 5663 5663 5663 5662 5661 5660 5659 5658 5656 5654 5652 5650 5649 5649 5648 5646 5644 5641 5639 5638 5636 5633 5630 5628 5625 5622 5619 5617 5614 5613 5611 5609
5655 5655 5654 5653 5652 5652 5651 5651 5650 5650 5650 5649 5649 5648 5647 5646 5645 5643 5642 5641 5638 5637 5635 5634 5633 5632 5630 5628 5625 5623 5621 5620 5618 5614 5612 5610 5607 5604 5601 5598 5596 5594 5592
5643 5642 5641 5641 5640 5639 5638 5637 5636 5635 5635 5634 5634 5633 5632 5630 5629 5628 5627 5625 5623 5621 5620 5618 5617 5615 5614 5611 5609 5606 5604 5603 5603 5601 5596 5595 5591 5589 5585 5582 5580 5578 5576
5630 5629 5628 5627 5626 5625 5623 5622 5621 5621 5620 5620 5618 5617 5616 5615 5613 5612 5611 5610 5608 5606 5604 5602 5601 5599 5597 5595 5592 5590 5587 5585 5585 5582 5579 5578 5576 5573 5570 5567 5564 5562 5560
5616 5615 5614 5613 5612 5611 5609 5608 5607 5606 5606 5605 5603 5602 5601 5599 5597 5596 5595 5594 5592 5590 5588 5586 5585 5583 5580 5578 5575 5573 5571 5570 5569 5567 5562 5561 5560 5557 5555 5552 5549 5547 5545
5602 5601 5600 5599 5598 5597 5595 5594 5592 5592 5591 5590 5589 5587 5585 5584 5582 5580 5578 5577 5576 5574 5572 5569 5568 5566 5564 5562 5559 5557 5556 5553 5553 5552 5548 5545 5544 5541 5540 5538 5535 5532 5530
5588 5587 5587 5585 5584 5582 5581 5579 5577 5576 5576 5575 5574 5572 5570 5568 5566 5564 5562 5561 5560 5558 5556 5554 5552 5550 5548 5546 5544 5541 5539 5537 5536 5536 5533 5530 5528 5525 5526 5525 5521 5518 5515
Wind_Speed
26 24 23 22 22 21 21 22 22 22 21 21 22 23 23 23 23 22 22 22 22 22 22 21 21 22 22 22 22 22 22 22 23 22 22 23 23 23 23 24 24 25 25
27 25 24 23 23 22 22 22 22 22 22 22 22 23 24 24 24 24 23 23 23 23 23 23 23 23 23 23 24 24 24 24 24 25 25 25 25 25 25 26 26 27 27
29 28 27 25 24 23 23 23 23 22 22 23 23 24 24 25 25 25 24 24 24 24 25 25 24 24 24 24 24 25 25 25 25 26 26 27 27 27 28 28 28 28 28
29 29 28 26 25 25 25 24 24 24 24 24 24 24 25 26 27 27 26 26 25 24 25 25 26 26 26 26 26 27 27 27 27 27 28 28 29 29 30 30 30 30 29
30 30 30 28 26 25 25 25 25 25 25 26 26 26 27 27 28 28 28 28 28 26 26 27 27 28 28 28 28 28 29 29 29 29 30 30 31 31 31 31 31 30 30
31 31 31 30 28 27 26 26 27 27 27 28 28 28 28 28 28 29 29 30 30 29 28 29 29 29 30 30 30 30 30 31 31 31 32 32 32 32 32 31 31 32 31
31 31 30 31 30 29 28 28 29 29 29 29 29 29 29 29 29 29 30 32 32 31 30 30 31 31 31 31 32 32 32 32 33 33 34 33 33 33 33 34 34 34 33
32 32 31 31 31 31 30 30 30 30 30 29 30 30 30 30 31 31 32 33 34 34 33 32 32 33 33 33 33 34 33 34 34 35 35 35 35 35 35 36 36 36 36
32 32 32 33 32 32 31 31 31 31 31 31 31 32 32 32 32 33 34 34 35 36 35 34 34 34 35 35 35 36 35 36 36 36 37 37 37 37 38 38 38 38 38
33 34 34 34 33 33 33 33 33 33 33 33 33 33 33 34 34 35 35 36 37 37 37 35 34 35 36 36 37 37 37 38 39 39 40 40 40 40 41 41 41 41 41
35 35 35 35 35 34 34 34 34 35 35 35 35 35 36 37 37 37 37 37 38 38 38 38 37 36 37 38 39 40 39 40 40 41 42 42 43 43 44 43 43 43 43
35 35 36 36 36 36 36 36 36 37 37 37 38 38 38 39 39 40 40 39 39 40 40 41 40 39 40 40 41 42 42 42 43 44 44 45 45 46 46 46 46 46 46
36 37 37 37 37 37 37 37 37 38 39 39 40 40 40 40 41 42 42 42 42 42 42 43 43 42 42 43 44 44 44 45 45 46 47 47 48 48 48 49 48 49 49
39 38 38 38 39 40 40 40 40 40 41 41 42 42 43 43 43 43 44 44 43 43 44 45 46 47 46 47 47 47 47 48 48 49 50 50 50 50 50 51 51 51 52
39 40 40 40 41 42 43 42 42 43 43 43 43 44 45 44 44 45 46 46 45 45 47 48 49 50 49 50 50 50 51 51 51 51 52 52 52 52 53 53 53 53 53
39 39 41 42 42 43 44 44 44 44 44 45 45 45 46 46 46 46 47 47 48 49 49 50 52 52 52 52 53 53 54 53 53 54 55 55 54 54 55 55 55 55 55
40 41 42 42 43 44 45 45 46 46 46 47 47 47 47 48 48 48 49 49 50 51 52 51 53 54 54 54 54 55 55 55 55 55 56 56 57 57 57 57 57 56 56
40 41 41 42 43 44 45 45 46 47 47 48 48 49 49 49 49 50 50 51 52 53 53 53 54 55 54 54 54 55 56 55 56 56 55 56 57 57 58 58 57 57 56
41 42 43 43 44 45 46 47 47 47 47 48 49 50 51 50 50 51 52 53 54 55 55 54 54 54 54 54 54 55 55 55 55 56 55 55 56 57 57 57 56 56 55
43 44 45 45 45 46 47 48 49 49 49 50 51 51 52 53 54 54 55 55 55 55 54 54 54 53 54 54 55 55 55 55 55 55 55 55 56 56 56 56 56 55 54
46 46 47 47 47 49 49 50 51 51 52 52 53 53 54 55 55 56 56 55 55 55 54 54 54 54 55 55 56 56 56 55 55 54 55 55 56 55 55 55 55 54 54
48 48 48 49 50 50 51 52 52 53 53 54 54 55 55 55 55 56 56 55 55 55 55 55 55 55 55 56 56 57 56 55 55 54 56 55 55 55 54 54 54 53 53
48 49 49 50 51 52 53 53 54 54 54 55 54 55 55 55 56 56 56 56 56 56 57 57 56 56 56 57 57 57 57 56 55 54 55 54 55 54 54 53 53 53 53
49 49 49 50 51 51 52 53 53 54 55 54 54 54 55 55 55 56 56 57 57 57 58 57 57 56 56 56 56 56 56 57 55 54 56 55 54 53 52 52 53 52 52
50 50 50 50 51 51 52 52 53 54 54 54 55 55 55 55 55 56 57 57 57 57 57 57 57 57 56 55 56 56 56 56 54 53 53 54 52 51 51 51 51 51 50
50 50 50 50 51 51 52 52 53 54 54 55 55 55 55 55 55 56 56 56 56 55 55 55 55 56 56 55 55 55 55 55 54 52 51 52 51 50 49 49 49 49 49
Wind_Direction
238 239 240 242 245 249 252 252 254 257 261 262 261 261 260 260 261 261 263 266 267 267 268 269 270 272 276 276 276 278 280 280 280 282 285 286 288 289 290 292 293 293 294
237 238 243 245 246 250 252 254 256 258 261 262 262 262 263 262 262 262 262 264 267 268 268 270 270 272 276 277 277 279 280 281 282 283 284 286 287 288 289 290 292 292 292
238 240 244 247 248 251 253 256 256 259 263 263 264 264 264 265 263 263 262 261 264 266 267 268 271 272 275 277 279 280 281 282 282 283 284 285 286 287 288 289 290 290 290
238 241 244 247 249 252 255 256 257 260 264 266 266 266 267 268 266 264 262 261 263 266 267 268 270 273 274 276 278 280 281 282 282 284 285 285 286 287 289 289 289 289 288
241 243 245 247 250 253 257 259 259 261 264 267 268 267 268 269 268 265 263 263 264 267 269 269 271 273 274 276 278 279 280 281 282 283 284 285 286 286 287 289 288 288 287
242 243 244 247 251 255 258 261 261 262 265 267 268 268 268 270 270 268 266 266 267 269 270 271 272 274 275 276 278 279 279 280 281 282 283 284 284 285 285 286 287 286 285
242 244 246 247 251 254 258 262 265 265 267 268 268 268 268 269 270 270 269 268 268 269 272 273 273 274 275 277 278 279 280 280 281 282 283 284 283 283 283 284 285 286 284
245 247 249 251 252 255 259 264 267 269 269 269 268 267 267 268 270 272 272 270 270 271 272 274 274 274 275 277 278 278 279 280 281 282 282 283 283 283 283 283 285 285 284
246 249 252 253 254 256 259 263 266 269 271 270 269 268 267 267 269 272 273 272 271 271 272 275 275 275 276 277 279 279 279 280 281 281 282 282 282 282 282 283 284 284 284
250 251 253 253 254 257 259 262 266 269 271 271 271 271 271 270 271 273 274 273 272 271 271 274 275 275 276 277 278 279 279 281 281 281 282 282 282 282 282 282 282 282 282
252 254 255 253 255 258 261 263 267 269 271 271 271 272 273 273 273 275 275 275 274 273 272 273 275 276 276 276 278 279 280 281 281 281 281 281 282 282 282 282 282 281 281
253 254 255 255 257 259 262 265 267 270 272 272 272 273 274 275 275 275 275 276 275 274 273 274 275 277 276 276 277 278 279 280 280 281 280 281 281 281 281 281 280 281 281
254 255 255 257 259 260 263 265 268 270 271 272 272 273 274 276 275 275 275 275 276 275 274 274 275 277 276 277 278 278 279 280 280 280 280 280 280 280 280 280 280 281 281
255 256 257 259 260 261 263 265 268 271 272 272 272 272 273 274 275 276 275 276 275 274 274 275 276 277 278 278 278 279 279 280 280 280 280 280 280 280 280 280 281 281 281
256 257 260 261 263 264 266 267 268 270 271 272 271 271 273 274 275 276 275 275 276 275 275 275 276 277 280 280 279 280 280 280 280 280 281 281 281 281 281 281 282 282 282
258 260 262 263 264 266 268 269 269 271 271 272 271 271 272 273 274 275 275 275 276 276 276 277 277 277 279 281 280 281 281 281 281 281 281 282 282 282 283 283 283 282 282
262 263 263 264 266 267 270 270 271 270 271 271 271 271 272 273 274 274 275 276 277 278 277 277 278 279 280 281 281 281 281 282 281 281 282 282 283 283 284 284 283 283 282
263 264 264 266 268 269 270 271 271 271 272 272 272 272 273 274 275 276 276 278 278 278 278 278 279 280 280 281 281 281 281 282 282 282 282 283 284 284 284 284 283 283 282
265 265 266 268 269 270 271 272 271 272 273 273 272 273 274 274 275 276 277 279 279 279 279 279 280 280 280 281 282 282 281 281 282 282 283 284 284 284 284 283 282 281 281
266 266 267 268 269 271 271 271 271 272 272 273 273 274 275 276 276 277 279 280 281 280 280 280 279 280 280 281 282 282 282 282 283 284 284 284 284 284 283 282 282 281 281
268 268 268 268 269 270 271 271 271 272 272 272 273 274 275 276 278 279 279 280 280 280 279 280 280 280 281 281 282 282 282 282 283 284 284 283 283 283 283 282 282 281 281
269 269 271 271 271 272 273 272 272 272 272 273 273 274 275 276 278 278 279 279 279 280 280 280 281 281 281 281 282 282 283 283 283 283 283 284 284 283 282 282 282 282 282
270 272 273 273 273 273 273 273 273 274 274 274 275 276 277 278 279 279 279 279 280 280 281 281 281 282 282 282 283 283 284 284 284 283 283 284 284 283 282 282 282 283 283
272 273 274 274 274 273 273 274 274 275 276 276 277 278 279 279 278 279 279 280 280 280 281 281 281 282 282 282 282 283 283 284 284 284 285 285 284 283 282 282 283 283 283
272 273 274 274 275 274 274 274 275 276 276 276 277 278 279 279 279 279 280 281 281 281 281 281 282 281 281 281 281 282 283 284 284 285 285 285 284 283 282 282 282 282 282
272 273 274 275 276 275 275 276 277 277 277 276 277 277 278 279 279 280 280 280 281 281 281 282 282 281 281 280 281 282 283 284 284 284 284 284 284 283 282 282 282 282 282